Regional Weather Roundup
Issued by NWS Midland/Odessa, TX

Skip options and go directly to product.
Home | Oldest Version | Previous Version | Current Version | All | Text Only | Save Text | Print | Product List | Glossary On

Skip product version selection by date and time.   
438
ASUS44 KMAF 041401
RWRMAF
MIDLAND AREA WEATHER ROUNDUP
NATIONAL WEATHER SERVICE MIDLAND TX
900 AM CDT FRI SEP 04 2015

...IN SOUTHWEST TEXAS AND SOUTHEAST NEW MEXICO...

CITY           SKY/WX    TMP DP  RH WIND       PRES   REMARKS
ALPINE         SUNNY     74  55  50 S3        30.12R
ANDREWS        FAIR      68  56  65 S5        30.01R
ARTESIA        SUNNY     73  52  46 S7        30.00R
BIG SPRING     SUNNY     75  64  69 SE12      30.01R
CARLSBAD       SUNNY     75  51  43 S5        29.97R
DRYDEN           N/A     77  68  73 VRB3      29.96R
FORT STOCKTON  SUNNY     75  61  61 S13       29.98R
GUAD PASS      MOSUNNY   71  51  49 S6        30.13R
HOBBS          SUNNY     72  55  56 SE13      30.03R
MARFA          SUNNY     66  54  63 CALM      30.11R
MIDLAND AIRPK  SUNNY     74  61  63 S8        30.00R
MIDLAND INTL     N/A     74  61  63 S8        29.99R
ODESSA         SUNNY     75  63  66 S13       30.00R
PECOS          SUNNY     70  53  55 E8        29.95R
PRESIDIO       FAIR      80  55  43 NE8       29.96R
SEMINOLE       SUNNY     68  53  58 CALM      30.02R
SNYDER         SUNNY     72  62  72 S9        30.00R
WINK           SUNNY     74  61  63 SE13      29.96R
$$
...OTHER STATIONS IN TEXAS...

CITY           SKY/WX    TMP DP  RH WIND       PRES   REMARKS
ABILENE        SUNNY     78  67  68 S14       29.98R
AMARILLO       MOSUNNY   75  56  51 S14       30.01R
AUSTIN         PTSUNNY   78  74  87 S8        29.95R
BROWNSVILLE    SUNNY     82  78  88 SE7       29.89S
CORPUS CHRISTI MOSUNNY   83  76  79 S7        29.92R
DALLAS FTW     MOSUNNY   82  71  69 S7        29.96R
DEL RIO        SUNNY     79  71  76 E10       29.91R
EL PASO        PTSUNNY   77  58  51 SE3       30.01R
HOUSTON INT    MOSUNNY   82  77  84 NE3       29.96R
LUBBOCK        MOSUNNY   72  57  59 S8        30.01R
SAN ANGELO     SUNNY     77  68  73 S8        29.97R
SAN ANTONIO    PTSUNNY   81  73  76 S6        29.95S
WACO           SUNNY     80  72  76 S7        29.96R
WICHITA FALLS  NOT AVBL
$$
...OTHER LOCATIONS IN NEW MEXICO...

CITY           SKY/WX    TMP DP  RH WIND       PRES   REMARKS
ALAMAGORDO     MOSUNNY   72  54  53 CALM      30.04R
ALBUQUERQUE    CLOUDY    68  49  50 SE6       30.11R
CANNON AFB     MOSUNNY   73  53  48 SW6       30.04R
CLOVIS         SUNNY     73  52  46 S8        30.05R
HOLLOMAN AFB   PTSUNNY   72  54  52 SW3       30.02R
ROSWELL        MOSUNNY   72  50  45 SE3       29.99R
RUIDOSO        PTSUNNY   64  46  52 W5        30.23R
SANTA FE       PTSUNNY   65  44  46 N5        30.17R
TRUTH OR CONSE CLOUDY    67  57  70 SW3       30.09R
TUCUMCARI      MOSUNNY   74  50  42 SW6       29.99R
$$

USA.gov is the U.S. government's official web portal to all federal, state and local government web resources and services.